Theta_e
318 318 318 318 318 317 316 315 314 312 310 307 306 303 302 302 302 301 302 301 301 301 301 301 300 301 301 301 301 301 300 300 301 301 302 302 306 307 308 312 316 318 319 320 321 321 322 322 322 321 321 321 321 321 321 320 320 322 321 321 321 320 319 319 319 319 319 319 320 320 321 321 322 322 323 323 324 325 325 326 326 327 328 329 329
317 317 316 316 316 315 314 313 311 309 307 305 303 302 301 301 302 302 302 301 300 300 300 300 300 300 300 300 300 300 300 300 300 300 301 302 305 307 306 309 313 315 316 318 319 320 321 321 320 320 321 321 321 321 321 320 320 320 320 320 320 319 319 318 318 318 318 318 318 318 319 320 321 321 322 322 322 323 323 324 325 325 326 327 328
316 315 314 314 314 313 313 312 310 307 306 304 303 303 302 301 301 300 300 300 300 299 299 299 299 299 299 300 300 299 299 299 300 301 301 302 304 307 309 307 310 312 314 317 318 318 318 318 318 318 320 320 320 320 319 319 319 319 318 318 319 318 318 317 317 316 317 317 317 318 318 319 320 320 320 321 321 321 322 322 323 323 323 324 325
315 313 313 312 312 311 311 309 309 306 304 303 301 302 302 303 303 302 302 301 300 299 300 298 298 298 299 299 299 299 298 299 299 300 301 302 303 305 308 309 306 309 311 313 314 315 316 316 316 317 318 318 318 318 318 318 318 318 317 317 317 317 316 316 316 315 315 316 317 317 317 318 318 319 319 320 320 320 321 321 321 321 322 322 322
313 312 311 311 310 310 309 308 308 305 303 303 302 302 301 300 300 300 300 300 299 298 299 299 298 298 298 298 298 298 299 299 299 300 301 302 302 302 305 308 308 306 306 308 310 312 313 314 315 316 317 317 317 317 317 316 317 317 317 317 316 316 316 315 315 315 315 315 315 316 316 316 316 317 318 319 319 319 319 319 320 320 320 321 321
312 311 310 309 308 308 308 306 306 304 302 302 300 299 299 299 298 298 297 298 298 297 296 297 297 297 298 297 298 298 298 299 299 300 300 301 301 302 302 303 305 306 306 303 305 309 311 312 312 314 315 315 315 315 315 315 316 316 316 316 316 316 315 315 314 314 314 314 314 314 314 316 316 316 317 317 317 318 318 318 319 319 319 319 319
310 309 308 307 306 306 306 305 304 303 301 300 299 299 300 299 297 297 297 297 298 297 298 297 296 296 297 297 297 298 298 298 299 299 299 300 300 301 301 300 300 302 303 302 301 302 306 309 310 312 313 313 314 314 314 314 315 315 315 315 315 315 314 314 313 313 313 313 314 313 314 315 315 315 315 316 316 317 317 317 317 317 318 318 318
308 308 306 305 304 304 304 304 303 301 300 300 300 299 299 299 298 299 296 296 297 296 297 297 297 297 297 297 297 296 297 297 298 298 299 299 300 300 300 299 299 298 299 300 299 300 300 304 307 308 308 309 311 313 313 314 314 314 315 314 314 313 313 313 313 312 312 312 312 313 313 314 314 315 315 315 315 315 315 316 316 316 316 317 317
307 306 305 304 303 302 302 302 301 300 300 299 298 299 299 299 298 298 298 296 296 296 296 296 296 296 296 297 297 297 297 297 298 298 299 299 299 298 298 298 296 297 297 297 297 296 296 299 301 302 304 306 307 310 312 312 313 313 313 313 313 312 312 312 311 311 312 311 311 312 312 312 312 313 313 314 314 314 314 314 315 315 316 316 316
306 305 304 304 303 302 301 301 300 299 299 298 298 299 299 298 296 297 298 296 295 295 294 295 296 296 295 296 296 296 297 297 297 296 297 298 297 297 297 296 296 296 296 296 296 295 295 295 297 298 298 302 305 307 310 310 311 312 313 312 312 311 311 311 310 311 311 310 311 311 311 311 311 312 312 312 312 312 313 313 313 314 315 315 315
304 304 303 302 301 301 300 300 299 299 299 298 298 298 298 297 297 295 297 297 296 296 295 296 296 295 295 294 295 295 296 296 296 297 297 297 297 297 297 296 296 295 295 295 295 295 296 295 296 297 297 297 300 304 307 308 309 310 311 311 312 311 310 310 309 309 309 309 309 309 310 310 310 311 311 311 311 311 311 311 312 312 312 312 313
303 303 302 301 300 300 299 299 298 298 298 297 297 296 296 297 297 296 294 295 297 297 296 294 294 294 293 294 294 294 294 294 296 296 296 297 295 295 295 295 295 295 295 294 295 295 295 295 294 294 295 294 295 297 301 303 306 308 309 311 311 310 309 309 308 308 308 308 308 308 308 309 309 309 309 310 310 310 311 310 311 311 311 311 311
303 302 301 300 300 299 298 298 298 298 297 297 298 297 297 297 296 295 294 293 293 296 296 296 293 292 293 293 293 294 293 293 293 294 295 295 295 294 294 294 294 294 294 294 294 294 294 294 294 294 294 295 293 293 296 299 301 306 308 308 309 310 309 308 308 307 306 306 306 307 307 308 308 308 309 309 309 310 310 310 310 310 311 311 311
302 302 301 301 299 298 298 297 297 297 298 298 299 297 297 296 296 294 295 293 292 294 296 294 292 292 290 290 290 291 292 292 292 292 294 294 294 295 294 294 293 293 294 293 293 293 293 293 294 294 294 294 294 294 296 299 299 301 307 309 309 310 308 308 307 306 305 305 305 306 306 307 307 307 307 308 309 309 309 309 309 309 310 310 310
302 301 300 300 299 298 297 297 297 297 297 297 297 297 296 295 295 293 293 295 294 295 295 296 293 295 295 292 289 289 290 290 292 292 292 293 293 294 294 294 293 294 293 293 293 292 292 293 293 293 293 293 293 293 294 295 294 295 300 302 305 308 308 306 305 306 305 304 304 305 305 306 306 306 306 307 307 308 308 308 308 309 309 309 310
302 301 300 300 299 298 297 296 296 297 297 296 296 296 295 295 294 294 294 291 293 291 295 296 298 295 291 292 292 292 289 289 289 290 292 292 292 292 293 292 292 293 293 293 292 292 292 292 292 292 292 293 293 293 295 296 294 295 295 296 297 301 304 305 305 305 304 303 304 304 304 304 304 305 306 306 306 307 307 307 307 308 308 309 309
302 301 299 299 299 298 297 297 296 296 296 296 296 296 296 295 295 294 293 292 291 291 292 295 295 299 296 292 289 289 291 294 290 290 291 291 291 292 292 292 291 292 292 292 293 292 292 291 292 292 292 292 293 293 294 295 297 297 296 294 295 296 298 302 303 303 302 302 303 304 303 304 304 304 305 304 305 306 306 306 307 307 308 308 308
301 301 300 299 299 299 298 297 296 296 296 296 296 296 296 295 295 295 294 294 293 293 291 293 294 296 295 298 299 294 293 293 291 288 290 291 292 292 292 292 292 292 292 292 292 292 291 291 291 291 291 292 292 292 293 295 296 298 299 297 296 295 295 297 300 301 301 301 301 302 303 303 303 303 303 303 304 305 305 306 306 307 307 307 307
301 301 300 299 299 299 298 297 296 296 296 296 295 296 296 296 295 294 295 295 296 292 292 291 292 292 294 295 295 292 297 293 291 293 287 289 291 291 291 292 291 291 291 291 292 292 291 291 291 291 291 292 292 292 292 293 294 296 295 295 295 295 295 294 295 297 299 299 300 300 301 302 302 302 302 302 303 304 304 305 306 306 306 306 306
300 300 300 299 299 298 298 297 296 296 295 295 295 296 296 296 295 295 295 295 296 293 293 293 289 290 292 291 291 292 293 295 300 296 294 289 288 290 291 291 290 290 291 291 291 291 291 290 291 290 290 291 291 292 292 293 296 296 294 293 294 294 294 294 293 294 295 296 297 299 300 300 301 301 301 301 302 303 304 304 305 305 305 305 306
300 299 299 299 298 298 298 297 296 296 295 295 296 296 296 295 294 294 294 294 295 295 295 294 292 292 291 291 292 292 292 294 294 295 295 293 292 288 288 290 289 290 290 291 291 292 291 291 290 291 290 291 291 291 291 292 294 295 292 291 292 293 294 293 293 293 293 294 295 296 297 298 299 299 300 301 301 302 303 303 303 304 304 305 305
298 299 299 299 298 298 297 297 296 296 295 295 296 296 296 296 295 294 294 294 294 294 294 295 295 294 294 293 291 291 291 290 291 293 294 296 293 291 291 287 286 288 290 290 290 290 290 290 289 289 290 290 290 290 291 292 293 293 290 289 290 291 291 291 292 292 293 293 293 294 295 296 297 297 298 299 301 302 302 302 303 303 303 304 304
297 298 298 298 298 298 297 297 297 296 295 295 295 295 295 295 295 295 294 294 293 293 295 296 295 295 295 294 292 292 291 290 291 292 292 291 291 293 293 291 291 290 289 290 290 290 290 290 289 289 289 290 290 290 291 292 291 289 287 288 288 289 290 290 291 291 292 293 293 293 293 293 294 295 297 298 300 301 301 301 302 302 302 303 303
297 296 297 297 297 297 297 297 296 296 295 295 295 295 295 295 294 293 293 294 294 293 293 294 295 294 296 295 294 295 294 294 295 294 293 293 293 292 292 292 290 291 290 289 290 290 289 289 289 289 289 290 290 290 291 291 290 286 287 285 287 287 289 290 290 290 291 292 292 292 292 293 293 293 295 296 298 300 300 300 300 301 302 302 302
296 295 296 297 296 296 296 295 295 295 295 295 295 295 294 294 293 293 293 293 292 293 291 292 294 292 294 294 294 295 294 296 297 295 295 296 295 292 293 291 289 289 288 288 287 288 289 289 289 289 289 289 290 290 291 291 290 286 286 285 284 285 286 287 288 289 290 291 291 291 291 292 292 292 294 295 296 298 298 299 300 300 301 301 301
296 296 296 296 296 296 296 296 296 296 295 295 295 295 294 293 293 293 292 293 293 293 292 293 293 294 294 293 293 293 294 296 296 296 295 294 293 292 291 288 290 290 287 286 288 286 287 288 289 289 289 289 290 290 290 290 289 285 284 286 285 283 284 286 287 289 290 290 290 290 290 290 291 292 292 294 295 295 296 298 299 299 299 299 300
297 297 297 297 296 296 296 296 295 295 295 295 295 294 294 293 293 293 292 292 292 292 291 292 292 293 293 292 293 293 293 294 294 294 295 295 294 293 292 287 285 287 285 286 287 286 289 286 288 288 288 289 289 289 289 289 288 285 284 286 287 283 283 285 287 289 289 289 289 289 289 289 290 291 292 292 293 294 295 296 297 298 298 298 298
298 298 297 297 296 295 295 295 295 295 295 294 294 293 293 292 292 291 291 292 291 291 291 291 292 293 292 292 292 292 292 293 293 293 294 295 295 295 293 291 288 284 286 285 285 285 289 286 287 288 288 288 289 289 288 288 287 285 283 287 287 286 284 284 286 288 288 289 289 289 289 289 290 290 291 291 292 292 293 294 294 294 294 294 294
298 298 297 297 296 296 295 295 295 294 294 294 293 293 293 292 291 291 290 291 290 291 291 290 290 291 291 292 291 291 291 292 291 292 293 293 294 294 294 292 292 289 286 284 285 285 287 287 284 286 288 288 288 288 286 287 287 285 287 286 286 286 285 284 285 287 288 288 289 288 288 289 289 290 290 291 291 291 292 293 293 293 293 294 294
297 298 297 296 296 294 294 294 294 294 293 293 293 292 292 291 291 291 291 291 290 290 290 290 290 290 290 291 290 290 291 291 290 290 291 291 292 293 293 293 293 290 290 287 287 288 287 286 287 286 286 286 287 287 287 287 286 284 286 286 285 285 284 283 284 285 286 287 287 287 288 289 289 289 290 290 290 291 292 292 293 293 293 294 295
296 296 296 295 295 294 294 294 294 293 293 293 292 292 291 290 290 290 290 290 290 289 289 289 289 289 289 289 289 289 290 290 289 289 290 290 291 291 291 292 292 292 291 290 287 288 289 284 286 288 285 286 287 286 286 286 285 284 285 285 285 283 282 282 283 284 285 286 286 286 287 288 289 289 289 290 290 291 291 292 291 292 292 292 293
295 295 295 294 294 294 294 293 293 293 292 292 292 291 291 290 290 289 289 289 289 288 288 289 289 289 288 287 288 288 289 289 289 289 288 289 290 290 290 290 290 290 290 289 287 286 287 287 286 286 286 285 286 284 285 285 285 282 284 284 284 282 282 283 283 283 284 284 285 286 287 287 288 289 289 289 290 290 290 290 291 291 291 292 293
295 294 294 294 294 294 293 293 293 292 292 291 291 291 290 289 289 289 289 288 288 288 288 288 288 288 287 287 287 287 288 288 288 288 288 288 288 288 289 289 288 288 287 287 285 285 283 285 286 284 285 285 283 284 284 284 283 282 282 283 283 282 283 283 284 283 283 283 284 285 286 287 288 288 289 289 289 289 289 290 290 290 291 292 292
294 294 293 294 294 294 293 293 292 292 292 292 291 290 290 289 288 289 288 288 287 287 287 286 287 286 286 286 286 286 287 286 287 287 287 287 286 286 286 287 286 286 287 286 285 285 282 282 283 284 283 284 282 284 283 283 282 283 282 281 282 283 282 283 283 284 283 283 283 284 286 287 288 288 288 288 288 289 289 289 289 290 290 291 291
293 293 293 293 293 293 293 292 292 292 292 291 291 290 289 289 288 288 288 287 287 286 286 286 286 286 285 285 285 285 286 285 285 286 286 286 286 285 285 286 285 285 285 286 285 284 283 281 282 281 281 282 282 282 283 283 283 283 281 281 282 282 283 283 283 284 283 283 284 285 286 286 287 287 287 287 288 288 288 289 289 289 289 290 290
292 293 293 292 292 292 291 291 291 291 291 291 291 290 289 289 288 288 287 287 287 286 286 286 286 285 284 284 284 285 284 283 283 284 285 285 284 284 284 284 284 284 284 284 285 285 284 281 280 280 281 280 281 282 282 282 281 281 281 282 282 282 282 283 283 283 283 283 284 284 285 285 285 285 286 286 287 287 288 288 288 288 288 288 288
290 291 292 292 291 291 291 291 291 291 291 291 290 290 289 289 288 288 288 287 287 286 286 286 285 284 283 283 284 284 283 282 283 283 283 283 283 283 283 283 282 283 283 283 283 283 283 281 280 280 281 281 281 281 281 279 280 280 281 280 281 281 282 283 283 283 283 283 283 283 283 283 284 284 285 286 286 287 287 287 287 287 287 287 287
289 289 290 290 291 290 290 290 290 290 291 290 290 289 289 289 288 287 287 286 286 286 285 285 285 285 283 282 283 283 282 281 282 282 282 281 281 281 281 282 282 282 282 282 282 282 282 282 280 278 280 279 279 279 280 280 279 279 279 280 281 281 281 281 282 283 283 283 283 283 282 283 283 283 284 285 285 286 286 286 287 286 286 285 285
288 288 288 289 289 289 288 289 289 289 288 288 288 288 288 288 287 286 286 285 285 285 285 285 285 284 283 283 283 283 282 282 282 282 281 281 281 281 281 281 282 281 281 281 281 281 281 281 280 279 278 279 279 277 279 280 280 281 280 280 279 281 281 281 282 283 283 282 283 282 283 283 283 283 283 284 285 285 285 285 285 285 284 284 284
287 288 288 288 289 288 288 288 288 288 288 288 288 288 288 287 287 286 286 285 285 284 284 284 284 284 283 283 282 282 282 282 282 282 282 281 281 281 281 281 281 281 281 281 280 280 280 280 280 278 278 277 278 279 280 279 278 278 280 280 280 281 281 282 282 281 282 282 282 283 283 282 283 283 283 283 283 283 283 283 283 283 282 283 284
288 287 288 288 288 288 289 289 289 289 289 288 289 288 288 287 288 287 286 285 285 285 284 284 284 284 284 283 282 282 283 283 283 283 283 283 282 281 281 281 281 280 280 280 280 280 279 279 278 279 278 277 277 277 277 277 277 278 280 280 279 281 281 281 281 282 281 281 282 282 282 283 282 282 282 282 282 281 282 281 282 282 282 283 283
287 287 287 287 287 287 287 288 288 288 288 289 288 288 288 287 287 287 287 286 286 285 285 284 284 283 283 283 283 283 283 283 283 284 285 285 284 284 282 282 281 281 281 280 279 279 279 278 278 278 277 277 277 278 277 278 280 281 280 279 278 280 280 279 280 281 282 281 281 281 282 283 282 281 281 280 281 281 281 282 282 282 282 283 284
285 286 286 286 286 287 287 287 287 288 288 288 288 289 290 290 288 287 286 286 286 285 285 284 284 283 283 283 283 283 283 283 283 284 285 285 285 285 284 284 283 281 280 280 279 279 279 278 279 278 277 277 278 279 278 279 280 280 280 280 280 279 278 278 278 281 282 281 280 280 280 282 280 278 279 279 280 280 281 281 282 282 282 283 284
285 286 285 285 286 286 286 286 286 287 287 287 289 289 290 290 289 287 286 286 285 286 285 285 284 284 283 282 282 282 282 282 283 283 284 285 285 285 284 284 284 285 285 281 280 279 279 278 278 278 278 278 279 279 278 279 279 279 280 280 279 278 277 277 278 279 281 281 279 278 278 281 280 278 278 279 279 280 280 281 282 283 283 284 284
285 285 285 285 285 286 286 285 285 286 286 288 289 289 290 290 290 289 287 286 285 285 285 285 284 284 283 282 281 281 282 283 283 282 282 283 284 284 284 284 283 284 284 284 284 282 281 279 278 278 278 278 278 278 279 279 280 278 279 278 279 278 278 278 278 279 280 281 279 277 276 278 278 277 277 279 279 280 280 281 282 282 283 283 283
284 284 285 285 285 285 285 285 285 285 286 287 288 288 289 289 289 289 287 286 285 285 285 285 284 283 283 282 281 281 281 282 282 282 282 282 282 283 282 282 281 282 283 284 283 282 281 280 280 279 279 279 278 279 280 281 280 278 278 277 278 277 277 277 279 279 281 281 277 276 274 276 277 277 276 278 279 279 279 280 282 282 283 283 283
283 283 283 284 284 285 285 285 285 285 286 287 287 287 288 288 289 289 287 287 286 285 285 285 285 284 284 283 282 281 281 281 282 281 281 281 281 281 280 280 280 280 281 281 282 281 280 278 279 279 279 279 280 280 280 281 282 281 281 279 278 278 278 279 278 279 279 279 278 276 271 275 277 276 276 277 278 278 279 280 281 282 282 283 283
283 283 284 284 284 284 285 285 284 284 286 287 287 287 287 288 288 287 287 287 286 286 285 285 285 284 284 283 283 282 281 281 282 283 282 282 280 279 279 279 279 279 280 282 283 282 280 279 279 279 280 280 281 281 281 281 281 281 280 279 278 276 275 274 274 276 275 278 278 275 272 273 276 275 275 277 277 276 277 278 280 281 282 282 282
282 282 282 282 283 283 283 283 283 284 285 286 287 287 287 287 287 286 286 286 286 286 285 285 285 284 283 283 283 282 281 280 282 284 284 282 279 279 278 278 278 278 278 280 282 282 281 281 281 281 282 283 283 283 283 283 281 280 278 276 273 275 274 272 273 274 274 276 276 275 273 272 274 274 274 276 276 276 276 277 278 280 281 281 281
280 281 281 281 282 283 282 282 283 283 283 284 285 286 287 287 286 286 286 286 285 285 285 285 285 284 283 283 283 282 281 280 282 284 284 282 279 278 278 277 277 276 277 279 279 280 282 281 281 282 282 283 283 283 283 283 282 281 277 274 274 274 272 273 272 273 274 274 274 276 271 271 274 275 273 274 275 275 275 276 277 278 279 279 280
280 281 281 281 281 281 282 282 282 282 282 283 284 285 286 286 286 285 285 285 284 285 285 284 284 284 283 283 283 282 281 281 283 284 284 282 279 278 278 277 276 276 277 278 278 278 278 278 278 279 280 281 281 281 281 282 281 280 278 277 276 274 272 273 273 272 270 271 274 275 270 272 273 273 273 271 270 273 275 276 277 277 278 278 277
Wind_Speed
10 11 9 10 9 8 8 8 7 7 6 6 6 6 5 5 5 5 4 4 4 3 3 3 2 2 2 3 2 2 2 2 2 1 1 2 2 3 7 7 5 3 2 3 3 4 5 5 5 5 6 6 6 7 7 6 5 9 8 8 7 8 9 9 8 8 8 7 8 8 9 9 10 10 10 11 11 11 12 12 11 12 12 13 13
10 10 10 10 9 8 8 8 8 7 7 7 6 6 6 5 5 5 5 4 4 3 3 3 2 2 2 2 2 2 2 2 2 2 2 2 2 4 5 8 7 5 5 4 4 4 4 5 5 3 5 6 6 7 7 6 6 7 7 7 7 7 8 9 8 7 7 7 8 8 8 9 9 10 10 10 11 11 11 11 12 12 12 12 12
10 10 9 9 8 8 9 7 7 7 7 6 6 5 5 5 5 5 5 5 4 3 3 3 3 2 2 2 2 2 2 2 2 2 3 3 3 3 3 6 9 8 5 6 7 6 5 4 4 3 4 5 5 6 5 6 6 5 5 7 7 7 6 7 8 7 7 7 7 7 8 9 9 9 10 10 10 11 11 11 11 11 12 12 12
10 10 10 9 9 9 8 8 8 7 7 6 6 5 5 4 4 4 4 4 4 3 2 3 3 2 2 2 2 2 2 2 3 2 2 3 4 4 4 4 8 11 10 8 8 8 7 7 5 3 4 4 5 5 4 4 5 5 4 6 6 6 6 7 6 6 6 6 7 7 8 8 9 9 9 10 10 10 10 11 11 11 11 11 11
9 9 9 9 9 9 8 8 7 7 6 6 6 5 4 5 4 4 4 3 4 3 2 2 3 2 2 2 2 2 2 2 2 3 3 3 3 4 4 4 5 9 12 11 9 8 8 7 7 7 5 4 4 6 5 4 5 5 5 5 5 5 6 6 6 6 6 6 6 7 7 8 8 8 8 9 9 9 9 10 10 10 11 11 11
9 9 9 9 8 9 9 8 7 7 6 6 6 6 6 6 6 5 5 4 4 4 4 3 3 2 2 2 2 2 2 2 3 3 3 3 3 4 4 4 4 4 5 10 11 9 8 7 7 7 7 5 5 5 5 4 5 5 5 5 5 5 6 6 5 5 5 5 6 6 6 7 7 7 7 7 7 8 9 10 10 10 11 11 11
9 9 10 9 9 9 9 8 7 7 7 7 7 6 6 6 6 6 5 4 4 4 4 4 3 3 2 3 2 2 2 2 3 3 3 3 3 3 3 3 3 4 4 4 7 10 9 8 8 7 7 7 5 4 4 4 4 4 4 5 5 6 6 5 5 5 5 5 6 6 6 6 6 6 6 7 8 9 9 10 10 10 10 10 10
10 10 10 9 8 9 8 8 8 7 7 7 6 7 6 6 6 6 7 6 5 5 3 3 3 3 2 2 2 3 3 3 3 4 3 4 3 3 3 3 2 2 2 3 3 5 10 9 9 9 8 7 6 4 3 3 4 4 5 5 5 5 6 5 5 5 5 5 6 6 7 6 6 6 7 7 8 8 8 9 10 10 10 10 10
11 10 9 9 8 8 8 8 8 7 7 6 7 6 6 6 6 5 6 6 6 6 4 3 3 3 2 2 2 3 3 3 4 3 3 3 4 4 3 3 4 2 2 2 2 3 6 9 10 11 10 8 6 6 4 2 4 4 5 5 5 5 5 5 5 5 6 5 5 6 6 6 6 6 6 7 8 8 9 9 10 10 10 11 10
12 11 10 9 9 8 7 8 8 7 6 7 7 5 6 7 7 6 5 6 6 7 6 4 3 3 3 2 2 2 2 3 3 4 4 4 4 4 4 4 3 2 2 2 2 2 3 4 7 10 12 9 7 7 7 2 3 5 4 5 5 6 6 6 6 6 5 5 5 5 6 6 6 6 6 7 7 8 9 9 10 10 10 10 11
12 12 11 10 9 9 8 9 8 7 7 7 7 6 6 7 7 7 4 4 6 6 6 5 4 3 3 3 1 1 1 2 3 3 3 4 3 3 3 4 4 3 3 2 1 2 1 1 1 2 5 10 9 8 8 7 2 3 4 5 6 6 6 6 5 5 5 5 5 6 6 6 6 7 7 8 8 8 8 8 8 8 9 9 9
13 13 12 11 11 10 9 9 9 9 9 9 8 8 9 9 7 8 8 3 2 5 6 7 6 5 4 3 2 1 1 2 2 3 3 4 4 4 4 3 3 3 3 2 2 2 1 1 2 2 3 6 8 8 8 10 9 2 3 6 6 6 6 6 5 5 6 5 6 6 6 5 6 7 7 7 8 7 8 7 7 8 7 7 7
13 13 13 11 10 9 9 9 9 9 10 10 10 9 8 8 7 7 9 8 5 5 7 7 8 5 4 3 3 2 2 2 3 3 3 4 4 4 4 4 3 3 3 2 3 2 2 1 1 1 2 2 4 5 7 8 11 10 3 4 5 5 5 5 5 5 6 6 6 5 6 6 6 6 7 8 8 8 8 8 7 7 8 7 7
11 12 12 12 11 9 10 11 11 10 10 9 9 8 9 8 8 7 6 9 7 8 8 9 7 7 7 5 3 3 3 2 3 4 4 4 4 4 4 4 4 3 3 3 3 3 2 2 1 1 1 2 2 2 2 3 6 12 15 5 6 5 5 5 4 4 5 5 5 5 6 6 6 7 8 8 8 8 8 8 8 8 8 8 8
11 12 11 12 12 11 11 10 12 10 10 9 10 10 10 12 12 10 9 6 5 7 9 11 7 7 6 6 5 5 4 4 5 5 5 5 4 5 4 4 4 4 4 3 4 3 2 2 2 2 2 1 2 3 4 4 4 8 12 17 17 10 6 4 3 5 5 4 5 5 5 6 7 7 7 7 7 8 8 7 7 8 8 8 8
12 12 10 11 13 12 11 11 12 12 12 11 12 12 11 11 11 11 10 9 7 9 9 9 5 10 7 7 5 5 3 8 8 7 7 5 5 5 5 4 5 4 4 4 3 3 3 3 3 3 2 2 2 3 3 4 2 5 9 15 13 10 7 5 4 4 4 4 4 4 5 6 6 6 7 7 8 8 7 7 7 7 8 8 8
11 13 12 13 12 12 12 12 12 12 12 12 12 13 13 12 13 12 14 13 11 9 10 9 9 6 4 5 2 3 6 3 9 6 7 6 7 6 6 6 5 5 4 3 3 3 3 4 3 3 3 3 3 3 5 5 5 6 8 9 9 10 9 6 4 4 4 4 4 4 4 5 6 7 7 7 8 7 7 7 8 8 8 7 8
11 12 13 11 12 12 12 11 12 11 12 11 10 10 12 12 13 13 14 13 11 10 10 9 8 8 7 4 2 2 4 6 8 5 7 7 6 7 6 7 5 5 4 4 4 3 3 3 3 4 4 4 4 4 4 4 4 4 5 6 8 9 9 8 7 4 4 4 4 4 5 5 6 6 7 8 7 7 7 8 8 8 8 8 8
12 12 13 13 12 12 12 12 12 12 11 11 12 13 12 13 11 12 12 12 11 11 12 11 7 8 6 5 3 2 3 8 7 5 5 6 6 7 7 7 6 6 5 5 4 4 3 3 4 4 4 4 4 4 4 4 3 6 8 8 8 9 9 8 7 6 5 4 4 4 4 5 5 6 7 7 7 7 7 7 8 8 8 8 9
10 11 11 12 11 11 11 11 11 11 10 12 12 11 10 10 12 13 10 12 12 12 12 11 13 11 9 7 5 2 4 6 4 6 4 7 7 6 6 8 7 7 7 6 5 5 5 4 4 4 4 4 4 4 4 5 5 5 4 5 6 7 8 8 7 5 4 4 4 4 4 4 5 6 7 7 7 7 7 7 8 8 8 8 9
11 11 12 12 11 11 11 11 11 11 9 10 10 11 13 14 13 12 12 12 11 12 10 10 11 9 9 7 5 5 4 4 3 3 6 7 6 10 8 6 6 8 7 6 5 5 5 5 4 5 5 5 5 4 4 5 5 4 4 5 6 7 8 8 7 5 4 4 4 4 4 4 5 6 6 7 7 7 7 7 8 8 8 9 9
11 12 12 14 13 13 12 13 13 11 10 12 11 10 11 10 12 13 13 13 11 11 13 10 10 9 10 8 9 6 4 5 5 6 3 3 5 7 8 10 9 9 9 8 8 7 6 6 6 6 5 5 5 5 5 5 4 4 4 5 6 7 8 8 7 5 5 5 5 5 4 4 5 6 6 6 6 7 7 7 8 8 8 9 9
9 9 11 12 13 13 12 13 12 11 11 12 12 12 11 11 11 11 11 13 11 11 10 8 8 10 10 9 11 11 11 10 10 8 8 7 5 4 6 8 8 7 8 8 7 7 6 5 6 7 7 6 6 5 5 5 4 5 6 4 6 5 7 8 7 6 5 5 5 5 5 5 6 6 7 6 7 7 6 7 7 8 8 8 9
8 9 11 13 12 12 12 12 12 13 13 12 11 11 11 11 10 11 11 12 10 9 11 10 10 9 10 9 10 9 10 9 8 8 9 8 8 7 6 5 1 2 5 5 5 5 6 6 6 7 7 7 7 6 6 6 5 8 4 4 4 5 6 8 8 6 5 5 5 5 5 6 6 6 7 7 7 7 8 7 7 7 8 9 9
9 10 11 13 12 12 12 13 13 13 12 12 11 12 10 10 11 12 12 13 13 13 11 12 12 11 10 10 8 9 10 8 7 8 8 7 7 7 4 5 5 6 4 5 5 6 5 5 6 6 6 6 6 7 6 6 6 7 5 5 3 4 5 7 8 6 6 5 6 6 6 6 6 7 7 7 7 7 7 8 8 8 8 9 9
9 11 10 11 11 12 12 11 11 11 11 12 12 11 11 11 11 12 13 11 10 11 11 10 9 9 7 7 9 8 8 6 5 5 7 7 7 8 5 2 0 4 3 5 3 4 6 6 6 6 6 7 6 7 6 6 6 9 3 1 3 0 4 6 7 7 6 6 6 6 6 6 6 6 7 7 7 7 7 7 8 8 8 9 10
9 8 9 10 12 11 12 12 12 12 11 11 9 10 10 10 10 11 10 9 10 11 11 11 10 10 9 9 7 7 7 5 5 6 6 8 7 8 7 7 4 3 4 4 4 8 4 6 7 7 7 7 7 7 7 6 6 11 7 4 3 3 5 7 8 7 7 7 7 7 6 6 7 7 6 7 7 7 7 8 8 8 9 9 10
7 8 9 9 11 12 12 12 12 12 12 12 11 10 10 11 10 9 11 7 10 12 12 11 12 12 12 9 7 9 7 6 6 6 6 6 6 6 7 8 8 5 6 5 6 8 7 6 5 8 8 8 7 6 7 7 6 9 5 4 3 4 6 7 8 8 7 8 7 7 7 7 7 7 6 7 7 7 8 8 8 9 9 9 10
7 7 8 9 10 11 11 12 13 13 12 12 12 12 11 11 11 11 12 10 11 12 12 12 13 12 12 12 11 9 9 7 6 6 5 5 6 5 7 9 9 9 5 8 9 8 8 10 7 9 9 8 7 7 7 7 7 8 5 5 5 5 5 6 8 8 8 8 8 7 8 8 7 7 7 7 7 8 8 8 8 9 10 10 11
7 5 7 8 9 11 11 11 12 12 13 12 12 12 12 11 12 11 11 10 11 11 11 12 11 11 11 10 10 10 8 8 9 8 7 7 6 6 7 7 8 11 9 8 8 9 7 9 7 7 10 9 7 7 7 7 10 9 6 5 5 5 6 7 9 9 9 9 8 8 8 8 8 8 8 7 7 8 9 9 10 10 11 11 12
7 7 8 9 9 9 10 11 11 12 12 12 12 12 12 12 12 12 12 12 12 13 12 11 11 10 12 12 11 10 8 9 8 8 7 7 7 7 6 6 5 6 8 8 9 4 6 9 9 6 9 10 8 7 6 6 8 9 6 6 6 6 5 7 9 10 10 9 9 9 9 8 8 8 8 8 8 9 10 10 11 11 12 12 12
7 8 8 9 10 10 10 11 11 11 12 12 12 12 12 13 12 12 13 14 15 15 13 12 10 12 13 14 13 12 9 8 8 9 8 8 7 7 7 6 6 5 5 7 10 5 5 5 7 7 8 9 9 8 7 6 6 10 6 6 5 5 6 6 8 10 10 10 9 9 9 8 9 9 8 8 10 10 10 11 11 12 12 12 12
8 8 9 10 10 10 11 11 12 11 12 12 12 12 12 13 13 13 13 14 16 14 13 14 13 13 15 15 14 14 11 11 10 9 9 9 7 7 6 6 7 6 7 8 10 4 2 1 4 6 7 8 7 8 8 7 7 7 7 6 6 6 6 5 5 8 9 10 9 9 9 9 9 9 9 9 10 10 11 11 12 12 12 12 12
8 9 10 9 9 10 10 11 11 12 12 12 12 12 14 14 14 11 13 14 15 15 13 14 14 11 13 14 14 13 11 12 11 11 10 9 10 9 8 8 8 7 7 8 9 5 7 5 4 5 7 9 7 9 9 9 8 7 7 6 6 7 6 5 5 5 9 9 10 10 10 10 9 8 9 10 10 11 11 11 12 12 13 13 13
9 9 9 10 10 10 11 11 11 12 12 12 12 12 13 15 15 14 13 15 16 16 15 15 14 12 13 13 14 11 7 11 11 11 10 11 10 10 10 8 9 8 7 8 7 7 8 7 7 7 8 8 9 9 10 7 6 6 7 8 7 6 5 6 5 5 7 9 10 10 9 9 9 9 10 11 11 11 12 12 12 13 13 13 14
10 10 9 10 10 10 11 11 12 12 12 12 12 13 15 15 15 15 14 15 15 16 16 15 14 13 14 14 14 14 11 12 11 10 10 10 9 10 9 8 8 7 7 7 6 4 6 7 8 9 8 8 8 6 7 6 7 6 7 6 7 7 6 6 6 6 6 9 9 10 9 9 9 10 10 11 12 12 12 12 13 13 14 14 13
10 10 10 8 9 10 10 11 12 13 13 13 14 14 13 13 14 14 13 14 15 15 15 15 15 11 10 13 13 12 13 12 11 11 10 12 9 8 8 7 7 7 5 6 7 5 6 8 7 7 7 7 6 7 7 8 7 7 7 8 7 7 7 6 5 5 7 10 11 11 10 9 9 10 11 12 12 12 12 13 14 14 14 14 13
10 10 11 10 8 10 11 11 12 13 13 13 14 14 14 14 13 13 12 12 13 14 13 12 12 11 10 16 14 16 16 20 12 10 11 14 11 9 9 8 8 7 8 7 7 7 6 7 9 8 8 9 8 8 9 9 8 8 8 8 7 7 6 6 6 5 5 4 4 5 7 9 10 10 10 11 12 13 14 15 16 15 14 14 14
9 9 9 10 8 8 9 10 11 11 11 10 10 10 11 11 11 11 11 11 11 10 12 15 14 13 11 11 13 15 18 16 12 12 13 12 10 13 11 10 9 9 9 9 8 9 8 8 8 8 8 8 9 9 9 9 8 7 8 9 8 8 8 7 6 6 5 6 8 9 7 6 6 7 9 12 14 15 16 16 16 15 13 13 13
7 8 9 10 9 8 9 10 10 10 12 12 12 13 12 12 12 12 12 11 11 10 11 13 14 15 13 10 9 11 12 11 11 8 10 12 10 10 9 9 10 10 10 9 9 9 8 8 8 9 8 9 8 6 7 9 8 7 8 7 8 9 8 7 7 5 5 5 4 4 6 6 6 8 10 11 13 13 14 14 13 12 13 13 13
6 7 7 8 9 11 10 10 11 11 11 11 9 9 11 14 14 14 13 13 13 12 13 14 14 15 12 11 11 11 20 21 24 20 18 18 10 9 10 10 11 9 7 6 8 8 8 7 6 7 8 8 9 10 10 10 12 10 9 8 6 5 5 4 6 6 5 5 4 3 3 3 3 4 4 6 6 8 10 11 10 11 11 11 12
8 8 8 7 8 9 10 11 10 9 10 9 11 15 15 10 11 11 12 13 14 14 13 13 14 14 13 11 12 23 23 23 24 24 20 14 23 14 10 14 18 14 13 10 8 9 8 8 10 9 8 9 11 12 11 10 9 7 9 9 8 7 6 5 5 6 6 6 5 4 4 3 3 4 5 6 5 6 6 6 5 7 10 14 16
8 9 8 8 8 8 9 10 11 11 9 8 14 15 15 20 15 9 9 9 12 15 15 14 13 12 12 11 9 16 19 21 23 24 16 20 15 14 11 10 13 22 18 15 8 9 9 9 8 8 9 10 11 10 10 9 9 10 9 9 7 6 4 3 3 4 5 6 4 3 3 3 2 4 4 5 5 6 7 7 10 12 14 16 17
6 5 7 7 7 7 7 8 10 10 10 11 15 13 16 17 19 12 12 10 10 13 14 15 13 10 11 8 8 10 12 15 12 13 18 19 20 18 13 9 12 14 19 24 16 8 8 8 7 9 9 10 10 10 10 10 10 9 8 9 8 8 6 5 3 2 4 4 3 2 3 1 2 4 6 6 5 5 7 11 14 15 16 17 18
7 7 7 7 7 8 7 9 9 9 10 12 13 15 15 18 19 19 11 13 13 13 14 14 14 12 9 13 11 9 10 21 16 14 16 16 18 20 18 15 13 19 19 17 16 12 14 19 17 15 11 11 10 11 11 11 9 10 10 8 8 7 6 5 5 3 3 4 2 1 4 4 2 4 6 6 5 5 7 11 14 16 17 18 18
8 8 8 9 8 7 8 8 9 8 9 11 15 17 16 18 20 18 13 15 14 14 14 13 11 12 11 9 11 10 9 12 14 16 14 15 14 13 12 11 10 15 19 20 19 16 7 9 14 19 10 8 8 9 11 11 12 11 10 9 9 7 7 6 4 3 2 1 2 1 4 5 4 5 7 6 4 6 8 12 16 17 18 19 19
9 9 9 10 9 8 8 8 8 9 8 13 15 17 18 19 21 20 14 13 11 11 13 14 13 13 13 12 12 11 10 12 12 15 15 14 14 14 16 16 10 10 13 15 13 12 10 6 4 4 6 8 6 9 10 11 10 8 7 7 7 6 5 3 1 3 4 3 4 3 4 2 3 4 6 6 5 7 8 12 17 19 20 19 20
9 9 9 8 10 10 9 9 10 11 11 13 15 17 19 19 21 13 13 12 12 13 12 14 13 12 13 13 12 12 11 12 16 22 19 12 15 17 18 17 10 8 12 13 14 13 11 9 9 7 7 8 9 9 10 10 9 8 8 7 6 6 6 5 6 6 7 6 8 7 5 5 5 6 7 5 6 8 9 10 15 19 18 18 19
11 10 10 10 10 10 10 10 11 12 11 12 15 17 17 19 15 11 11 12 12 11 12 12 12 11 12 14 14 12 11 12 17 24 23 19 16 17 17 16 13 8 10 9 16 17 15 15 13 11 12 14 14 15 16 16 11 10 8 8 7 8 8 8 8 6 7 6 8 8 5 5 6 6 6 6 6 8 9 10 11 13 16 17 18
12 12 11 11 11 10 11 12 10 11 12 13 16 17 18 18 14 10 11 13 14 16 12 11 10 11 14 22 16 13 13 12 18 24 25 22 17 17 17 16 16 12 11 9 9 11 17 16 15 14 14 16 17 17 18 18 17 14 10 10 11 9 8 9 6 7 5 5 6 8 5 5 3 4 4 5 7 8 10 10 10 10 12 14 17
13 12 11 11 11 11 11 13 14 14 12 13 15 18 19 18 14 9 11 12 14 14 14 9 11 8 11 16 23 18 13 11 21 25 29 23 18 17 17 16 16 13 12 14 13 12 12 12 12 12 11 15 14 13 13 20 19 16 10 8 10 10 10 10 7 3 3 6 7 10 6 4 4 4 3 2 4 4 6 7 8 7 6 6 8
Wind_Direction
190 189 186 189 186 180 178 180 178 175 176 178 176 173 171 167 164 164 160 152 148 145 137 132 141 126 122 123 129 112 117 127 124 128 140 143 130 64 351 356 0 32 78 109 130 143 138 130 118 119 121 125 122 116 116 114 110 102 99 93 89 83 76 73 69 68 65 67 71 70 64 58 60 62 63 63 62 60 59 58 57 55 52 49 46
189 188 187 187 183 177 181 182 181 176 179 182 182 178 172 168 166 161 155 150 153 141 151 139 126 124 133 139 141 147 145 150 152 160 146 137 125 119 30 2 8 56 58 77 97 125 126 117 105 115 114 127 125 119 121 128 121 114 104 103 95 89 84 74 68 67 65 66 68 67 63 62 58 61 64 66 65 66 62 61 60 58 55 51 49
189 187 186 185 183 180 187 181 184 181 183 184 176 180 170 172 169 164 161 158 149 145 163 147 146 141 134 152 146 147 145 145 150 151 147 139 139 129 101 40 21 23 80 76 73 73 90 111 109 107 117 128 131 122 117 102 99 113 125 112 101 92 88 79 70 67 66 66 69 67 71 66 61 60 62 64 65 64 62 63 62 60 57 53 51
189 183 186 184 185 185 188 185 190 179 184 181 172 173 167 151 143 137 137 147 141 148 152 158 155 146 140 145 158 160 155 155 154 155 145 138 143 147 140 103 53 33 39 80 80 82 87 85 94 100 89 115 125 110 110 109 107 110 108 112 115 102 91 74 69 70 67 73 65 63 65 66 64 59 59 62 64 63 63 62 61 59 56 55 50
190 184 183 184 183 183 189 191 189 179 180 170 162 159 152 147 140 139 137 138 145 138 134 158 151 145 160 158 166 163 157 166 154 152 148 153 147 145 143 135 109 68 45 46 69 75 80 79 78 73 87 109 116 120 118 125 118 113 106 110 109 114 103 87 75 65 68 66 65 62 62 63 60 59 58 60 60 60 59 59 58 56 55 52 48
189 184 186 188 186 188 189 188 187 172 168 162 174 174 169 161 153 156 154 166 164 156 167 172 159 151 167 163 191 167 166 168 158 150 156 152 149 141 142 147 143 122 87 57 44 57 69 72 74 74 71 84 95 110 119 130 118 107 105 104 100 98 89 86 85 73 67 64 61 61 61 63 62 60 57 57 59 58 58 55 52 52 51 48 45
188 184 190 192 188 189 190 188 178 171 174 179 180 176 172 166 160 162 159 173 167 159 175 173 163 166 167 174 178 163 173 158 150 149 160 147 148 140 137 138 136 131 134 118 72 39 48 59 66 68 71 71 77 96 115 132 119 123 117 103 96 86 84 80 70 77 68 65 67 67 63 61 60 58 62 56 52 53 51 50 46 45 43 42 40
187 188 190 194 191 191 190 184 168 174 180 175 182 177 170 164 166 165 163 173 166 167 179 167 162 156 158 175 160 177 169 161 158 158 150 160 147 141 136 121 128 107 109 123 106 57 34 48 55 59 60 61 65 76 133 123 113 122 120 109 96 94 93 82 79 74 72 70 66 62 58 56 55 52 46 48 47 45 45 45 44 42 39 39 38
190 189 192 191 193 193 187 175 167 178 177 174 184 182 168 162 164 174 179 167 172 165 172 168 152 143 146 154 164 180 170 164 167 155 157 155 146 138 124 104 90 105 122 97 115 118 54 46 54 48 43 53 52 46 41 109 132 126 135 127 110 106 91 87 82 73 69 65 60 59 56 51 50 45 42 41 41 39 38 38 38 35 33 33 28
189 188 195 192 193 191 178 164 169 178 175 175 187 178 174 174 166 172 175 169 176 175 174 160 135 144 135 141 168 186 156 161 153 159 167 154 151 144 136 133 131 118 105 95 89 93 115 78 69 60 39 39 53 54 40 53 136 140 127 122 115 98 87 87 79 68 62 58 57 55 52 47 42 39 38 37 35 35 30 29 31 29 27 25 23
188 187 194 189 189 187 174 166 172 178 175 179 180 176 176 182 171 162 167 177 180 177 168 144 130 118 122 127 147 136 151 147 166 176 158 155 141 135 138 140 133 128 121 120 102 93 87 132 130 104 63 36 43 44 43 40 56 127 140 132 115 99 96 85 74 63 57 56 50 42 42 36 34 34 31 28 26 26 27 24 24 24 20 18 15
188 188 193 190 189 186 175 165 177 178 178 183 184 185 182 174 173 163 165 157 173 153 141 139 126 114 111 106 100 105 133 167 179 162 157 149 153 164 155 144 145 131 125 127 116 103 109 106 107 105 103 69 49 39 36 25 12 100 129 138 120 110 100 80 68 58 42 36 38 35 29 30 27 29 30 28 23 24 22 20 19 16 13 12 10
187 186 193 191 190 179 167 169 177 182 187 191 185 179 175 174 164 165 168 170 179 168 159 148 140 130 126 132 130 128 130 182 178 172 168 167 167 173 159 164 152 153 154 135 123 123 125 116 113 99 94 116 107 69 48 32 20 5 108 116 114 104 88 78 68 54 34 26 28 29 24 25 20 23 23 17 17 17 13 13 11 8 6 5 4
186 189 190 188 186 176 176 177 181 187 190 186 175 167 164 170 161 164 185 183 179 178 168 165 184 178 163 158 155 163 175 203 198 185 186 180 182 173 174 171 166 164 162 150 137 135 124 125 115 99 91 99 96 117 94 70 31 17 22 42 118 109 88 70 55 47 39 25 20 29 23 16 16 17 15 9 10 9 6 4 5 1 358 358 355
189 189 191 190 187 180 183 178 184 182 181 184 177 176 179 176 176 177 171 190 185 179 186 204 193 180 164 147 180 175 182 217 207 207 194 188 187 181 181 168 167 177 175 165 159 140 127 120 124 115 109 110 119 113 101 76 46 17 40 48 46 55 70 63 48 39 35 32 24 25 24 16 12 13 12 4 4 1 358 355 358 353 350 349 349
192 191 193 192 190 186 180 182 185 184 186 183 182 185 178 181 183 185 170 170 189 191 206 213 235 155 178 221 173 202 186 213 195 193 192 192 196 189 183 176 167 178 182 174 158 143 137 134 138 142 138 138 129 125 118 113 86 65 50 57 55 53 62 61 58 47 36 43 30 22 20 15 8 10 7 5 360 354 348 346 349 347 345 344 343
198 196 198 197 195 190 187 186 184 187 188 187 185 187 183 185 181 179 182 184 184 184 199 211 230 255 228 147 140 218 235 129 163 178 176 195 207 202 190 188 184 189 189 168 157 146 142 148 155 149 160 155 151 144 137 142 137 116 104 90 72 60 49 59 64 54 43 34 28 12 18 21 10 6 1 357 355 351 344 349 349 344 342 340 342
201 199 201 201 199 196 191 186 187 187 192 194 186 181 185 184 185 188 190 198 181 172 189 207 223 238 256 304 335 250 185 145 166 188 171 205 199 202 202 201 203 204 207 181 178 175 160 149 163 167 169 173 163 162 155 150 148 147 128 102 89 68 60 50 48 55 47 40 30 16 11 13 7 8 359 352 350 348 345 348 348 344 339 345 349
202 199 199 202 202 198 196 193 191 192 191 191 190 189 185 188 184 193 196 189 187 190 187 190 201 246 239 242 260 231 288 146 199 128 177 191 209 199 206 205 208 214 210 209 189 194 173 169 164 173 174 179 173 171 164 136 95 88 84 96 79 64 53 51 50 45 45 43 33 19 16 6 2 359 353 347 347 344 347 346 346 344 342 345 345
205 203 203 203 206 205 202 199 197 197 191 199 197 189 184 187 189 194 192 192 193 196 192 183 187 207 199 218 234 267 278 299 285 208 210 172 191 200 216 199 207 217 216 207 197 203 183 176 170 172 181 177 183 180 164 156 151 139 115 88 75 57 46 42 41 43 40 33 31 20 8 5 357 354 349 345 342 343 344 345 347 342 339 341 342
203 202 199 203 204 207 204 205 204 202 196 204 206 195 190 185 185 190 195 195 197 204 200 194 195 197 167 208 209 213 214 250 288 289 239 220 186 179 190 183 212 221 212 202 195 189 185 177 170 178 181 178 182 182 175 169 166 139 111 85 63 45 32 25 25 27 12 12 20 10 6 358 351 347 345 342 339 340 341 342 343 338 336 340 339
204 205 199 201 203 202 203 204 206 205 199 206 207 197 197 195 192 194 195 195 197 200 207 200 193 204 185 176 186 188 208 215 225 217 260 261 245 186 179 175 196 211 195 192 188 184 185 178 175 181 185 180 182 179 185 176 171 150 114 87 63 41 24 13 12 9 351 356 5 358 354 349 343 340 339 336 337 335 338 337 340 335 337 338 338
203 207 208 205 206 204 205 204 205 205 200 205 207 202 201 200 196 198 200 201 201 201 207 211 189 202 186 194 194 189 191 194 198 199 202 200 213 189 175 192 202 167 192 185 177 183 181 180 182 180 184 178 178 179 180 177 144 110 105 86 63 32 15 5 2 354 341 344 349 345 341 343 338 335 332 331 330 332 330 334 335 335 332 334 333
204 209 209 207 207 207 204 204 205 207 207 208 209 203 202 197 194 197 203 207 211 202 209 209 197 207 196 202 206 202 208 207 200 187 199 211 199 208 181 157 199 170 127 168 186 188 192 190 189 184 181 177 178 178 171 171 148 136 170 88 52 27 2 353 346 338 325 331 333 328 328 331 332 326 326 323 326 326 326 328 331 329 326 329 329
208 212 212 205 205 205 204 206 208 209 209 205 208 204 198 196 198 197 202 200 204 202 203 208 201 206 202 207 209 208 211 215 206 194 207 214 200 216 136 157 191 171 151 170 187 198 204 197 184 190 180 182 174 176 173 175 169 162 184 127 69 19 350 337 327 316 307 312 319 317 321 324 320 318 319 317 318 321 321 321 325 325 325 327 328
214 214 212 205 205 209 209 211 213 213 210 208 207 202 197 201 202 203 204 206 205 204 210 207 208 211 206 205 211 219 217 211 206 199 199 200 204 213 149 151 66 159 129 189 172 178 198 198 189 185 183 184 176 178 176 172 151 147 144 153 142 127 316 312 307 298 293 302 307 309 309 315 307 309 307 310 313 314 314 317 318 322 324 326 326
220 219 208 204 207 209 211 210 208 210 207 206 205 204 202 207 210 210 208 204 203 203 210 206 209 204 209 215 214 220 222 213 198 212 210 205 201 197 165 169 191 196 176 192 190 220 183 173 182 187 187 182 182 180 176 177 148 144 161 195 219 200 269 289 296 292 288 291 296 296 299 295 292 293 298 306 308 309 309 313 315 319 323 322 321
226 216 209 204 205 209 211 214 211 210 209 208 207 207 204 207 212 208 208 196 203 202 209 204 213 205 207 211 213 218 214 208 204 218 217 213 212 196 183 189 189 199 193 199 204 224 193 171 182 196 186 184 182 179 170 165 164 151 171 217 231 235 236 268 286 287 286 289 288 287 292 285 283 285 291 297 298 301 302 307 313 317 316 314 313
234 216 214 209 210 209 213 215 214 214 212 208 204 205 204 207 214 212 211 203 205 209 207 209 211 204 209 203 210 212 207 196 198 213 218 220 221 212 199 201 203 221 188 210 205 200 187 197 183 193 189 187 177 174 167 186 163 167 200 208 224 249 251 263 279 279 282 283 284 284 282 282 283 285 287 291 295 296 299 305 312 313 312 314 312
232 220 218 219 214 212 217 216 214 212 212 209 205 204 202 209 213 215 215 206 207 213 211 211 210 203 207 203 207 215 201 189 203 200 205 210 212 209 211 214 214 222 220 208 215 192 171 191 202 172 184 187 180 175 174 189 155 173 195 215 226 244 255 266 277 275 274 274 277 274 274 276 277 275 277 283 292 297 305 310 312 314 314 313 314
231 228 221 222 217 214 215 220 217 214 213 212 207 208 206 213 211 213 208 203 207 214 212 205 210 201 204 206 205 213 200 191 194 196 201 202 207 205 213 216 220 226 233 231 235 167 170 179 198 188 174 181 178 170 168 186 163 182 199 219 228 235 253 266 259 262 263 264 265 265 268 270 273 276 281 292 297 303 305 309 310 309 310 310 310
233 226 225 221 219 218 216 219 219 217 214 214 209 209 207 215 214 213 211 201 209 213 210 204 201 203 205 208 205 206 197 186 196 198 199 202 200 202 205 204 210 216 221 235 243 197 176 186 180 168 168 172 176 176 178 183 158 175 212 221 228 225 243 242 236 245 257 256 258 262 269 275 279 280 286 291 296 300 304 303 304 306 306 307 307
241 234 229 227 224 222 221 218 219 218 214 213 210 208 212 216 216 217 215 209 211 216 210 208 202 201 206 208 206 202 190 189 199 193 197 195 193 205 200 197 208 200 197 218 227 179 145 105 166 163 164 164 177 188 184 186 184 192 207 224 225 229 233 239 239 234 245 256 260 266 269 271 270 276 284 289 295 297 298 298 298 301 301 302 304
252 242 237 232 227 228 225 225 221 221 219 215 212 210 216 218 218 214 214 212 213 219 214 216 204 202 206 209 209 196 185 194 195 194 192 190 193 197 198 197 205 196 193 203 220 188 166 164 179 157 159 180 183 185 190 190 194 191 199 209 220 224 228 228 235 230 225 243 254 257 263 267 271 280 289 291 288 291 292 293 293 295 297 298 299
270 253 243 237 230 229 230 229 227 226 223 219 215 213 217 218 218 215 210 212 212 212 212 214 207 197 201 210 212 192 167 192 199 198 188 193 190 196 197 191 200 196 184 201 202 204 162 181 177 171 177 181 193 184 193 199 195 193 204 212 217 217 219 228 235 239 225 238 250 259 264 272 278 284 286 283 283 283 283 285 291 295 297 297 297
286 277 255 241 238 232 233 232 230 229 226 225 222 219 220 219 220 221 217 215 215 214 214 214 208 197 202 205 208 193 177 196 202 195 191 187 185 195 192 189 194 190 185 190 214 215 163 158 186 187 183 173 193 189 180 186 190 199 209 220 217 222 223 222 231 239 226 233 250 261 264 267 273 275 272 272 273 274 278 285 289 292 293 293 294
299 290 281 261 246 243 237 234 233 233 230 226 226 224 223 223 225 225 224 221 222 222 220 216 211 196 198 207 202 173 168 189 199 196 186 185 187 183 189 179 181 181 157 184 197 201 177 174 164 181 176 180 181 184 178 179 195 206 212 214 215 217 224 228 232 231 235 241 250 254 256 256 260 261 261 264 270 276 282 287 289 290 291 293 299
307 299 292 283 260 253 247 240 238 238 234 230 228 227 226 226 226 227 228 225 225 225 223 224 217 207 203 208 188 190 190 191 197 186 159 175 163 175 184 180 178 164 170 179 185 192 194 180 161 162 183 177 171 186 188 190 190 193 201 207 209 215 215 225 225 220 214 215 215 219 225 234 232 238 254 265 274 282 285 287 289 289 293 302 310
314 302 291 282 267 255 247 241 241 237 234 229 227 226 223 223 222 223 224 225 227 228 226 229 228 227 223 219 212 200 205 204 196 180 176 180 182 192 182 177 167 167 178 181 181 184 188 177 172 176 172 186 183 181 184 187 200 204 196 186 200 200 204 208 212 197 198 212 220 225 234 246 260 265 267 272 275 279 283 286 289 293 302 309 310
317 314 306 299 288 269 256 250 242 237 238 236 230 231 228 225 224 226 226 223 227 229 230 227 227 229 223 212 206 203 207 203 197 173 173 190 184 186 185 165 168 172 181 175 174 181 182 186 183 177 180 176 185 185 155 170 189 208 210 203 192 181 187 196 206 203 197 205 219 206 210 223 235 244 252 263 270 274 280 285 286 296 301 303 300
315 309 306 302 298 290 278 259 252 246 242 239 230 222 224 227 227 228 226 225 229 233 232 230 227 227 222 208 205 206 217 219 219 218 210 205 173 183 185 165 170 166 168 164 174 175 184 185 185 181 177 184 189 179 182 189 196 198 179 182 203 190 184 199 209 201 204 209 217 221 221 210 241 255 272 282 276 281 279 282 288 292 297 302 303
317 314 311 302 293 289 286 280 266 251 249 247 238 233 232 230 223 224 225 226 227 231 232 231 228 223 225 219 220 223 224 222 221 220 218 214 213 210 166 178 193 174 161 162 173 181 176 184 191 178 183 197 192 193 192 194 182 159 159 177 189 187 181 211 218 201 185 189 202 212 203 183 221 268 270 278 285 286 286 289 293 304 303 299 297
314 315 314 308 302 297 293 289 281 270 254 242 250 241 233 231 233 223 219 226 224 229 231 231 229 223 223 219 214 219 221 223 223 219 213 213 214 221 220 210 186 183 184 170 178 168 180 193 180 183 198 194 195 189 190 178 177 180 178 179 180 178 191 193 202 140 170 182 197 207 215 184 215 276 282 278 285 286 282 278 289 294 295 295 294
303 301 293 290 296 291 285 280 277 273 271 262 254 244 235 231 231 233 235 232 227 229 231 231 233 222 216 206 203 212 211 212 206 205 212 212 210 213 213 216 217 211 194 186 164 171 186 178 180 200 190 197 188 182 185 174 176 177 182 179 181 179 177 191 212 201 114 143 179 217 262 231 262 271 279 274 276 275 273 278 284 287 288 287 286
299 294 293 290 283 281 275 275 274 270 273 270 265 247 237 234 231 231 238 236 234 234 232 229 228 223 210 223 221 210 208 212 209 208 207 209 207 207 209 210 216 217 221 225 214 206 164 165 193 181 191 184 179 193 182 178 168 170 174 178 180 180 184 188 205 195 166 153 143 249 281 288 291 275 276 277 273 267 271 271 272 275 278 280 280
299 297 294 288 283 277 272 269 269 267 261 262 263 257 245 236 234 230 237 239 239 238 233 226 224 220 210 204 215 214 194 194 202 206 198 203 195 192 199 201 203 211 219 220 217 235 260 208 177 186 183 169 185 170 172 170 174 176 175 176 172 174 183 192 189 204 187 132 204 218 271 264 258 260 264 270 266 268 267 271 273 273 274 276 277
294 292 296 297 293 287 279 274 277 270 264 260 261 260 257 248 240 232 235 234 234 235 235 231 227 224 219 214 209 208 194 184 193 192 192 185 189 200 207 209 200 196 199 205 209 207 201 203 229 217 158 167 160 159 163 177 178 174 168 155 157 161 161 167 229 244 240 237 220 209 242 274 256 244 252 263 270 267 267 270 268 268 269 270 270
286 283 280 281 279 283 279 279 281 275 269 253 249 253 253 251 251 245 243 238 236 236 235 231 225 221 218 218 214 212 196 194 193 191 192 172 191 201 207 208 201 191 204 205 199 189 187 190 193 184 165 163 165 161 165 164 160 144 133 126 104 100 122 171 211 215 228 227 203 209 227 247 251 257 261 266 267 268 269 267 268 266 264 263 262
287 286 284 281 279 278 276 270 266 267 268 254 248 253 250 249 248 246 244 244 241 232 233 230 224 216 212 213 216 211 199 201 188 194 193 182 201 203 205 205 205 196 205 198 195 189 190 190 188 174 152 163 169 165 165 165 157 153 143 138 150 154 167 195 220 220 223 202 202 203 210 239 239 240 256 257 264 270 270 268 268 267 262 258 257
288 282 281 282 278 276 276 279 267 271 272 268 262 254 252 247 239 237 244 249 250 246 235 222 224 225 220 222 218 217 206 201 183 193 197 192 201 203 202 202 204 203 203 185 177 192 186 181 178 171 170 172 173 170 169 169 164 163 162 170 165 158 180 197 205 207 212 204 196 185 184 225 228 231 251 270 269 257 256 261 263 261 256 255 255
282 284 282 281 283 278 275 277 280 273 270 270 261 258 253 249 242 234 240 248 253 252 248 230 227 226 226 224 221 220 208 178 187 199 203 197 203 202 201 201 206 206 196 175 169 170 173 170 173 173 178 175 171 173 177 175 176 178 175 155 163 171 184 203 205 190 242 239 201 183 179 221 194 239 232 275 261 257 245 252 249 240 236 244 263